This is the latest recevied weather packets stored in our database for station/object WB3IGR. If no packets are shown the sender has not sent any weather packets the latest 10 day(s).
| Time | Temp. | Humidity | Pressure | Rain* | Wind** | Luminosity | Snow |
|---|---|---|---|---|---|---|---|
| 1778279198 | 17.22° C | 53% | 1012.4 hPa | 0 mm | - | 45 W/m² | - |
| 1778278895 | 17.22° C | 52% | 1012.2 hPa | 0 mm | - | 42 W/m² | - |
| 1778278591 | 17.22° C | 51% | 1012.2 hPa | 0 mm | - | 37 W/m² | - |
| 1778278287 | 17.22° C | 52% | 1012.3 hPa | 0 mm | - | 49 W/m² | - |
| 1778277984 | 17.22° C | 50% | 1012.3 hPa | 0 mm | - | 43 W/m² | - |
| 1778277680 | 17.22° C | 50% | 1012.2 hPa | 0 mm | - | 47 W/m² | - |
| 1778277377 | 17.78° C | 51% | 1012.1 hPa | 0 mm | - | 72 W/m² | - |
| 1778277074 | 17.78° C | 50% | 1012.5 hPa | 0 mm | - | 124 W/m² | - |
| 1778276771 | 18.33° C | 49% | 1012.3 hPa | 0 mm | - | 175 W/m² | - |
| 1778276468 | 17.22° C | 52% | 1012.5 hPa | 0 mm | - | 217 W/m² | - |
| 1778276165 | 17.22° C | 51% | 1012.4 hPa | 0 mm | - | 98 W/m² | - |
| 1778275861 | 17.22° C | 51% | 1012.4 hPa | 0 mm | - | 92 W/m² | - |
| 1778275557 | 17.22° C | 52% | 1012.6 hPa | 0 mm | - | 93 W/m² | - |
| 1778275254 | 17.22° C | 49% | 1012.4 hPa | 0 mm | - | 67 W/m² | - |
| 1778274949 | 17.22° C | 50% | 1012.6 hPa | 0 mm | - | 69 W/m² | - |
| 1778274646 | 17.22° C | 51% | 1012.4 hPa | 0 mm | - | 71 W/m² | - |
| 1778274342 | 17.22° C | 49% | 1012.5 hPa | 0 mm | - | 98 W/m² | - |
| 1778274040 | 17.22° C | 49% | 1012.5 hPa | 0 mm | - | 150 W/m² | - |
| 1778273737 | 17.22° C | 50% | 1012.5 hPa | 0 mm | - | 116 W/m² | - |
| 1778273433 | 17.22° C | 50% | 1012.6 hPa | 0 mm | - | 88 W/m² | - |
| 1778273130 | 17.78° C | 49% | 1012.5 hPa | 0 mm | - | 108 W/m² | - |
| 1778272826 | 17.78° C | 49% | 1012.4 hPa | 0 mm | - | 189 W/m² | - |
| 1778272522 | 17.78° C | 48% | 1012.5 hPa | 0 mm | - | 175 W/m² | - |
| 1778272218 | 17.78° C | 49% | 1012.5 hPa | 0 mm | - | 206 W/m² | - |
| 1778271915 | 18.33° C | 49% | 1012.6 hPa | 0 mm | - | 230 W/m² | - |
* Rain latest hour (hover to see other rain measurements)
** Current wind speed in m/s (hover to see current wind gust speed)